Location: Ostrava
(49.8330°N, 18.2830°E)
Time: 13:00:04
(UTC+02:00)

Cosmos 2221 - Visible Passes

Search period start: 18 October 2017 00:00
Search period end: 28 October 2017 00:00
Orbit: 594 x 616 km, 82.5° (Epoch: 18 October)

Date Brightness Start Highest point End Pass type
(mag) Time Alt. Az. Time Alt. Az. Time Alt. Az.
18 Oct 5.6 05:07:11 10° NNE 05:09:51 16° ENE 05:12:31 10° E visible
18 Oct 2.6 19:17:02 10° S 19:21:14 54° E 19:25:30 10° NNE visible
18 Oct 5.2 20:56:08 10° WSW 20:59:12 18° WNW 21:02:17 10° NNW visible
19 Oct 5.1 05:19:35 10° NNE 05:23:07 23° ENE 05:26:37 10° ESE visible
19 Oct 2.4 19:29:52 10° S 19:34:12 88° E 19:38:36 10° N visible
19 Oct 5.7 21:10:36 10° W 21:12:29 12° WNW 21:14:23 10° NW visible
20 Oct 4.3 05:32:15 10° N 05:36:18 34° ENE 05:40:18 10° SE visible
20 Oct 3.1 19:42:58 10° SSW 19:47:14 58° WNW 19:51:34 10° N visible
21 Oct 3.4 05:45:04 10° N 05:49:24 53° ENE 05:53:42 10° SSE visible
21 Oct 3.5 18:19:22 10° SE 18:22:55 25° E 18:26:30 10° NNE visible
21 Oct 4.0 19:56:18 10° SW 20:00:20 37° WNW 20:04:25 10° N visible
22 Oct 5.8 04:22:31 10° NE 04:24:06 12° ENE 04:25:43 10° E visible
22 Oct 2.6 05:58:01 10° N 06:02:27 85° E 06:06:51 10° S visible
22 Oct 3.0 18:31:45 10° SSE 18:35:46 39° E 18:39:51 10° NNE visible
22 Oct 4.8 20:09:56 10° SW 20:13:30 25° WNW 20:17:08 10° NNW visible
23 Oct 5.4 04:34:27 10° NNE 04:37:25 17° ENE 04:40:22 10° ESE visible
23 Oct 2.5 06:11:05 10° NNW 06:15:26 60° W 06:19:45 10° S visible
23 Oct 2.5 18:44:25 10° S 18:48:41 63° E 18:53:02 10° NNE visible
23 Oct 5.4 20:23:55 10° WSW 20:26:44 17° WNW 20:29:35 10° NNW visible
24 Oct 4.8 04:46:57 10° NNE 04:50:39 26° ENE 04:54:19 10° SE visible
24 Oct 3.0 06:24:16 10° NNW 06:28:21 38° W 06:32:24 10° SSW visible
24 Oct 2.6 18:57:20 10° SSW 19:01:40 82° W 19:06:05 10° N visible
24 Oct 5.8 20:38:44 10° WNW 20:40:03 11° WNW 20:41:23 10° NW visible
25 Oct 4.0 04:59:40 10° N 05:03:49 39° ENE 05:07:55 10° SE visible
25 Oct 3.6 06:37:38 10° NNW 06:41:12 24° W 06:44:44 10° SW visible
25 Oct 3.4 19:10:29 10° SSW 19:14:43 51° WNW 19:19:01 10° N visible
26 Oct 3.0 05:12:31 10° N 05:16:54 61° ENE 05:21:14 10° SSE visible
26 Oct 4.1 06:51:18 10° NW 06:54:00 16° W 06:56:40 10° WSW visible
26 Oct 4.3 19:23:54 10° SW 19:27:50 33° WNW 19:31:50 10° N visible
27 Oct 5.6 03:49:34 10° NNE 03:51:41 13° ENE 03:53:46 10° E visible
27 Oct 2.4 05:25:30 10° N 05:29:55 85° W 05:34:19 10° S visible
27 Oct 5.1 19:37:37 10° WSW 19:41:02 22° WNW 19:44:29 10° NNW visible
